Location: Cahas Mountain Overlook
(37.0833°N, 80.1000°W)
Time: 13:59:18
(UTC-04:00)

FO-29 - Pass Details

Date: 30 April 2024
Orbit: 801 x 1320 km, 98.6° (Epoch: 21 May)

Event Time Altitude Azimuth Distance (km) Brightness Sun altitude
Rises 05:02:22 0° 356° (N) 4,284 13.3 -15.8°
Reaches altitude 10° 05:06:11 10° 338° (NNW) 3,342 12.4 -15.2°
Maximum altitude 05:10:43 17° 302° (WNW) 2,846 11.7 -14.4°
Enters shadow 05:14:40 11° 270° (W) 3,217 11.7 -13.8°
